Showing default

O3B FM20, 44112

Orbit data source: Space-Track

O3B FM20, 44112 is a payload satellite owned by O3B SES (JE) that was launched on Thu, 04 Apr 2019 UTC via a SOYUZ-ST-B launch vehicle from the French Guiana (FRGUI). Payload-class satellites include a variety of spacecraft equipped with specific instruments for various scientific and technological missions. These include communications satellites like Starlink; space stations such as the ISS; scientific satellites like the Hubble; Earth observation satellites from companies like Planet Labs, Umbra, and HawkEye 360; GPS; miniature CubeSats for education and research; and military/defense satellites.

Loading next visibility...
Identifier
44112, 2019-020A
Orbit
Active
Last TLE update
21 hours ago
Origin
Manufacturer
Thales Alenia
Mission
Operational Commercial Communications
Bus & Motor
PRISMA?, LS-400 AOCS?
Mass
700 kg wet, ~500 kg dry
Launch date (UTC)
2019-04-04 (6 years ago)
Launch vehicle
SOYUZ-ST-B
Launch site
French Guiana (FRGUI)
Object type
Payload
Rocket body
Debris
Shape & HBR
Trap Box + 2 Pan, 12 m
Radar Cross Section
21.980 m², Large (>1 m²)

Expand to show TLE details & history

TLE from 21 hours ago
0 O3B FM20
1 44112U 19020A   25183.00366612 -.00000023  00000-0  00000-0 0  9993
2 44112   0.0482 356.6257 0003397 104.6061 258.8043  5.00115402114051
Epoch: 2025-07-02T00:05Z
TLE epoch observation values (Epoch: 2025-07-02T00:05:16.752Z)
Latitude
0.00175°
Longitude
78.3892°
Altitude
8,065.328 km
Speed
5.254 km/s
True Right ascension
00h 00m 00s
True Declination
0° 00' 06"
Sunlit
Object was in daylight at epoch
Visualization orbit readout
Latitude
0.03879°
Longitude
-152.60472°
Altitude
8,060.004 km
Speed
5.256 km/s
Apparent Right ascension
08h 31m 59s
Apparent Declination
-23° 03' 03"
Sunlit
Object is in daylight
Visualization observer readout
Local Sidereal Time
08:43:52
Azimuth
183.068° SSW
Elevation
26.972°
Doppler factor
1
Orbital elements
Apogee altitude
8,073.858 km
Perigee altitude
8,064.043 km
Semi-major axis
14,447.088 km
Eccentricity
0.00034
Inclination
0.0482°
RAAN
356.6257°
Arg. of periapsis
104.6061°
True anomaly
Unknown
Mean anomaly
258.8043°
Eccentric anomaly
Unknown
Mean motion
1.24989 °/min
Orbital period
288.02 mins
BSTAR
0
Loading maneuver chart data...
Loading SW <> Apogee altitude chart data...
Loading historical data...
Loading historical data...
Loading historical data...
Loading historical data...
Loading historical data...
Loading historical data...
Loading historical data...
Other satellites on launch #20 in the year 2019 (2019-04-04 UTC)

O3B FM20 Visibility forecast

Observer location: undefined°, undefined°

Span
Click to sort rows by Start time (UTC) header in descending order
Start Az.
Max El. time (UTC)
Max El. Az.
Max El.
End time (UTC)
End Az.
42 mins2025-07-02 20:59:45.186Z183.065° SSW2025-07-02 21:01:45.186Z179.941° S24.398°2025-07-02 21:41:45.186Z127.312° SE
79 mins2025-07-03 02:22:45.186Z231.596° WSW2025-07-03 03:01:45.186Z179.919° S24.34°2025-07-03 03:41:45.186Z127.379° SE
79 mins2025-07-03 08:22:45.186Z231.579° WSW2025-07-03 09:01:45.186Z180.003° SSW24.342°2025-07-03 09:41:45.186Z127.381° SE
79 mins2025-07-03 14:22:45.186Z231.665° WSW2025-07-03 15:01:45.186Z180.026° SSW24.401°2025-07-03 15:41:45.186Z127.315° SE
37 mins2025-07-03 20:22:45.186Z231.682° WSW2025-07-03 20:59:45.186Z183.066° SSW24.361°2025-07-03 20:59:45.186Z183.066° SSW
|